Location: Usti nad Orlici
(49.9830°N, 16.4000°E)
Time: 08:27:39
(UTC+02:00)

ISS - Pass Details

Date: 02 April 2019
Orbit: 408 x 410 km, 51.6° (Epoch: 24 April)

Event Time Altitude Azimuth Distance (km) Brightness Sun altitude
Rises 20:56:04 0° 287° (WNW) 2,339 1.8 -14.4°
Reaches altitude 10° 20:58:10 10° 285° (WNW) 1,476 0.3 -14.7°
Maximum altitude 21:01:28 70° 202° (SSW) 438 -3.8 -15.2°
Enters shadow 21:02:37 36° 128° (SE) 661 -3.3 -15.3°
